{"data":{"norad_id":60068,"intl_designator":"2024-113K","name":"STARLINK-11170 [DTC]","alt_names":[],"object_type":"PAYLOAD","status":"ACTIVE","operator":null,"country":"US","launch_date":"2024-06-19","launch_site_code":"AFWTR","launch_vehicle":null,"mission":null,"orbit_class":"UNKNOWN","rcs_meters":null,"size_class":null,"mass_kg":null,"dimensions":null,"purposes":["comms"],"wikipedia_slug":null,"has_3d_model":false,"image_url":null,"decayed_at":null,"tle_current":{"epoch":"2026-05-24T13:35:34.670400Z","epoch_age_seconds":106367,"freshness":"FRESH","line1":"1 60068U 24113K   26144.56637350  .00000258  00000+0  69833-5 0  9991","line2":"2 60068  53.1591 177.5208 0001128  76.4694 283.6450 15.69713931111471","mean_motion":15.69713931,"eccentricity":0.0001128,"inclination_deg":53.1591,"raan_deg":177.5208,"arg_perigee_deg":76.4694,"mean_anomaly_deg":283.645,"bstar":6.9833e-6,"rev_number":11147,"period_min":91.736460482493,"perigee_km":358.9554716638,"apogee_km":360.47553118812,"semimajor_km":6737.852501426,"source":"CELESTRAK","updated_at":"2026-05-25T13:38:19.158521Z"}}}